Погода в Карахуне

Россия / Иркутская область     55°35′18″N   103°09′39″E
темп.,
°C
ветер,
м/с
пор.,
м/с
влажн.,
%
обл.,
%
осадки,
мм/ч
давл.,
гПа
погр.,
м
11 мая, вт
вт1123:00+4ссз228855 0.3 101812
02:00+2зсз11936 0.3 101810
05:00+1зсз11945 0.0 101910
08:00+6сз24785 0.0 1018336
11:00+12ссз345137 0.1 10161509
14:00+14ссз353897 0.3 10142463
17:00+12ссз464994 0.6 10141710
20:00+6ссв488593 1.5 1016617
12 мая, ср
ср1223:00+5ссв2680100 0.0 1017447
02:00+4с3687100 0.1 1017406
05:00+1с3792100 0.1 1018499
08:00+2с457364 0.1 1018907
11:00+6с4544100 0.1 10172075
14:00+7с4537100 0.1 10172139
17:00+7с4538100 0.0 10162302
20:00+5ссв37515 0.1 1017769
13 мая, чт
чт1323:00−1ссв22734 0.0 101917
02:00−2ссз22845 0.0 102018
05:00−3с22895 0.0 102029
08:00+3с24580 0.0 1020571
11:00+7с45355 0.0 10191909
14:00+10с452995 0.0 10172333
17:00+11ссв343098 0.0 10162381
20:00+8с22465 0.0 101634
14 мая, пт
пт1423:00+2з11650 0.0 101810
02:000ю01690 0.0 101810
05:00−1юв11730 0.0 101810
08:00+7ююв23470 0.0 1016284
11:00+12ю33301 0.0 10131539
14:00+15ююз34227 0.0 10102249
17:00+16ююз35215 0.0 10082635
20:00+12ю253758 0.0 100896
15 мая, сб
сб1523:00+6ююв2349100 0.0 100944
02:00+4ююв2250100 0.0 100926
05:00+3зсз387396 0.0 1011270
08:00+4з51195100 0.1 1014771
11:00+5з61062100 0.1 10161380
14:00+6з61056100 0.2 10161711
17:00+9зсз5931100 0.0 10132663
20:00+5з4654100 0.0 10111138